Regional Weather Roundup
Issued by NWS

Home | Current Version | Previous Version | Graphics & Text | Print | Product List | Glossary On
Versions: 1 2 3 4 5 6 7 8 9 10 11 12 13 14 15 16 17 18 19 20 21 22 23 24 25 26 27 28 29 30 31 32 33 34 35 36 37 38 39 40 41 42 43 44 45 46 47 48 49 50
000
ASUS43 KDTX 062210
RWRMI
MICHIGAN HOURLY REGIONAL WEATHER ROUNDUP
NATIONAL WEATHER SERVICE DETROIT/PONTIAC MI
600 PM EDT MON JUL 06 2015

NOTE: "FAIR" INDICATES FEW OR NO CLOUDS BELOW 12,000 FEET WITH NO
SIGNIFICANT WEATHER AND/OR OBSTRUCTION TO VISIBILITY.

MIZ047>049-052>055-059>063-066>070-074>076-081>083-062300-
SOUTHEAST LOWER MICHIGAN

CITY           SKY/WX    TMP DP  RH WIND       PRES   REMARKS
ADRIAN         SUNNY     83  63  50 SW10      29.97F
ALMA           PTSUNNY   83  64  52 S10G16    29.92F
ANN ARBOR      SUNNY     82  62  50 S9        29.96F
BAD AXE        MOSUNNY   82  58  42 S12       29.94S
CARO           MOSUNNY   83  62  49 S10       29.93F
DETROIT CITY   SUNNY     83  62  49 S8        29.96F
DETROIT        PTSUNNY   83  65  54 SE9       29.97F
FLINT          MOSUNNY   85  61  44 SW6       29.95F
GROSSE ILE     SUNNY     79  64  61 SE10      29.95F
HILLSDALE      MOSUNNY   83  65  54 S8        29.98F
HOWELL         MOSUNNY   82  62  50 S6        29.96F

CITY           SKY/WX    TMP DP  RH WIND       PRES   REMARKS
JACKSON        MOSUNNY   81  65  58 S9        29.96F
LAMBERTVILLE   SUNNY     84  60  43 S3        29.98S
LANSING        MOSUNNY   82  64  54 SW14      29.94F HAZE
LAPEER         FAIR      84  55  35 SW8       29.95F
MASON          MOSUNNY   79  64  59 S5        29.95F
MONROE         SUNNY     81  65  59 SE5       29.96F
MT. CLEMENS    PTSUNNY   80  60  49 SE13      29.94F
PONTIAC        PTSUNNY   83  60  45 S10       29.96F
PORT HOPE        N/A     80  62  54 SE9       29.91F
PORT HURON     MOSUNNY   81  61  50 S8        29.96F
TRI CITIES     PTSUNNY   85  65  51 S12       29.92F
MIDLAND        FAIR      84  64  49 S13G18    29.90F
TROY           SUNNY     86  57  37 W8        29.98S
SAGINAW HB     MOSUNNY   82  61  47 S15       29.92F
$$
MIZ043>046-050>051-056>058-064>065-071>073-077>080-062300-
SOUTHWEST LOWER MICHIGAN

CITY           SKY/WX    TMP DP  RH WIND       PRES   REMARKS
BATTLE CREEK   MOSUNNY   84  66  54 S13       29.95F
BENTON HARBOR  PTSUNNY   84  69  60 S10       29.90F
BIG RAPIDS     PTSUNNY   81  61  50 S10       29.88F
COLDWATER      MOSUNNY   80  64  57 SW13      29.96S
FREMONT        FAIR      81  61  51 S8        29.87F
HOLLAND        PTSUNNY   83  66  56 S10       29.90F
GRAND RAPIDS   CLOUDY    85  66  53 S16       29.91F
IONIA          FAIR      84  64  51 SW13      29.92S
KALAMAZOO      PTSUNNY   84  66  54 SW14      29.94F
LUDINGTON      CLOUDY    81  68  64 S12G20    29.83F
MARSHALL       MOSUNNY   83  67  57 S9        29.94F
MOUNT PLEASANT PTSUNNY   83  64  52 S8        29.90F
MUSKEGON       CLOUDY    81  64  56 S14       29.87F
SOUTH HAVEN    PTSUNNY   83  67  59 S6        29.90F
$$
MIZ016>042-062300-
NORTHERN LOWER MICHIGAN

CITY           SKY/WX    TMP DP  RH WIND       PRES   REMARKS
ALPENA         PTSUNNY   85  63  47 S15       29.88F
BEAVER ISLAND  CLOUDY    76  64  67 SW7       29.82S
BELLAIRE       PTSUNNY   85  62  45 S12G18    29.82F
CADILLAC       PTSUNNY   82  63  52 S13G22    29.88F
CHARLEVOIX     PTSUNNY   83  64  52 S7G17     29.84F
FRANKFORT      PTSUNNY   84  61  45 S12G23    29.81F
GAYLORD        PTSUNNY   82  62  50 S12G23    29.87F HAZE
GRAYLING       PTSUNNY   82  62  51 S14       29.89F
HARBOR SPRINGS PTSUNNY   81  63  55 S8        29.83F
HOUGHTON LAKE  PTSUNNY   81  63  54 S15G21    29.90F
MANISTEE       PTSUNNY  N/A N/A N/A S12G20    29.83F
OSCODA         PTSUNNY   83  61  46 S13G23    29.90S
PELLSTON       PTSUNNY   83  63  50 S8        29.83F
ROGERS CITY    PTSUNNY   83  65  55 S12G20    29.86F
TRAVERSE CITY  PTSUNNY   84  64  50 S9G20     29.81F
$$
MIZ007>008-015-062300-
EASTERN UPPER MICHIGAN

CITY           SKY/WX    TMP DP  RH WIND       PRES   REMARKS
KINROSS        CLOUDY    79  66  65 S8        29.83F
MACKINAC ISLAN PTSUNNY   75  63  64 E7        29.83F
NEWBERRY       CLOUDY    69  63  82 S10G16    29.81F
S. S. MARIE    CLOUDY    79  65  62 S8        29.82F
MUNISING         N/A     66  64  93 NW26G35   29.78R
$$
MIZ004>006-011>014-085-062300-
CENTRAL UPPER MICHIGAN

CITY           SKY/WX    TMP DP  RH WIND       PRES   REMARKS
MANISTIQUE     CLOUDY    60  58  94 SW6       29.80F FOG
ESCANABA       CLOUDY    66  64  94 SW7       29.78S
MENOMINEE      CLOUDY    73  66  78 S6        29.76F
SAWYER-GWINN   HVY RAIN  55  54  94 N14       29.85R
$$
MIZ001>003-009>011-084-062300-
WESTERN UPPER MICHIGAN

CITY           SKY/WX    TMP DP  RH WIND       PRES   REMARKS
IRON MOUNTAIN  RAIN      72  69  90 S5        29.77F FOG
HOUGHTON       LGT RAIN  58  55  90 N7        29.87S FOG
COPPER HARBOR    N/A     50  49  96 N10       29.85F
IRONWOOD       CLOUDY    57  57 100 CALM      29.89R
$$

ABBREVIATIONS USED IN REMARKS
   TC - TEMPERATURE IN CELSIUS
  WCI - WIND CHILL INDEX
   HX - HEAT INDEX
  VSB - VISIBILITY



USA.gov is the U.S. government's official web portal to all federal, state and local government web resources and services.